カタログに戻る

ATLAS CENTAUR R/B

運用中GTO
NORAD 7902·ROCKET BODY·🇺🇸 United States

打ち上げ May 22, 1975 から Cape Canaveral Space Force Station

Loading…

TLE

経年Source: Space-Track

元期: Sep 14, 2026, 00:49 UTC

1 07902U 75042B   26257.03432836 -.00000073  00000-0  12375-2 0  9998
2 07902  25.5188 224.4942 7180757 343.9891   1.6503  2.21161337282977

AllMySatでATLAS CENTAUR R/Bをリアルタイム追跡

Download on the App Store